Cartersville, GA

7:59 PM EDT on May 23, 2018 (GMT -0400)
Cartersville

Weather History for KVPC - May, 2014

Change the Weather History Date:

Monday, May 5, 2014

  Actual Average Record
Temperature  
Mean Temperature 69 °F 65 °F  
Max Temperature 87 °F 77 °F 88 °F (2012)
Min Temperature 50 °F 52 °F 33 °F (2011)
Cooling Degree Days 4 2  
Month to date cooling degree days 4 10  
Year to date cooling degree days 23 35  
Growing Degree Days 18 (Base 50)    
Moisture  
Dew Point 53 °F    
Average Humidity 64    
Maximum Humidity 96    
Minimum Humidity 32    
Precipitation  
Precipitation 0.00 in 0.14 in 1.23 in (2003)
Month to date precipitation 0.00 0.63  
Year to date precipitation 16.76 18.76  
Sea Level Pressure  
Sea Level Pressure 29.98 in    
Wind  
Wind Speed 1 mph (North)    
Max Wind Speed 8 mph    
Max Gust Speed 13 mph    
Visibility 10 miles    
Events      
T = Trace of Precipitation, MM = Missing Value Source: NWS Daily Summary

Daily Weather History Graph

Daily Weather History Graph

Search for Another Location

Airport or City:

Astronomy

May. 05, 2014 Rise Set
Actual Time 6:46 AM EDT 8:26 PM EDT
Civil Twilight 6:19 AM EDT 8:53 PM EDT
Nautical Twilight 5:46 AM EDT 9:26 PM EDT
Astronomical Twilight 5:12 AM EDT 10:00 PM EDT
Moon 12:04 PM EDT (5/5) 1:10 AM EDT (5/5)
Length of Visible Light 14h 34m
Length of Day
13h 40m
Waxing Crescent, 36% of the Moon is Illuminated
May 5
Waxing Crescent
May 6
First Quarter
May 14
Full
May 21
Last Quarter
May 28
New

Hourly Weather History & Observations

Time (EDT) Temp. Heat Index Dew Point Humidity Pressure Visibility Wind Dir Wind Speed Gust Speed Precip Events Conditions
12:53 AM 55.9 °F - 51.1 °F 84% 30.01 in 10.0 mi Calm Calm - N/A   Clear
1:53 AM 54.0 °F - 51.1 °F 90% 30.01 in 10.0 mi Calm Calm - N/A   Clear
2:53 AM 53.1 °F - 51.1 °F 93% 30.01 in 10.0 mi Calm Calm - N/A   Clear
3:53 AM 51.1 °F - 48.9 °F 92% 30.01 in 10.0 mi Calm Calm - N/A   Clear
4:53 AM 52.0 °F - 50.0 °F 93% 30.01 in 10.0 mi Calm Calm - N/A   Clear
5:53 AM 51.1 °F - 48.9 °F 92% 30.02 in 10.0 mi Calm Calm - N/A   Clear
6:53 AM 51.1 °F - 48.9 °F 92% 30.03 in 10.0 mi Calm Calm - N/A   Clear
7:53 AM 54.0 °F - 52.0 °F 93% 30.04 in 10.0 mi Calm Calm - N/A   Clear
8:53 AM 62.1 °F - 55.0 °F 78% 30.05 in 10.0 mi Calm Calm - N/A   Clear
9:53 AM 71.1 °F - 54.0 °F 55% 30.04 in 10.0 mi Calm Calm - N/A   Clear
10:53 AM 73.9 °F - 55.9 °F 53% 30.04 in 10.0 mi Variable 3.5 mph - N/A   Clear
11:53 AM 78.1 °F - 57.0 °F 48% 30.03 in 10.0 mi Calm Calm - N/A   Clear
12:53 PM 82.0 °F 81.6 °F 55.9 °F 41% 30.01 in 10.0 mi North - - N/A   Clear
2:53 PM 84.9 °F 83.7 °F 55.9 °F 37% 29.96 in 10.0 mi Variable 5.8 mph - N/A   Clear
3:53 PM 86.0 °F 84.2 °F 54.0 °F 33% 29.94 in 10.0 mi Variable 3.5 mph - N/A   Clear
4:53 PM 86.0 °F 84.0 °F 53.1 °F 32% 29.91 in 10.0 mi Variable 3.5 mph - N/A   Clear
5:53 PM 84.9 °F 83.2 °F 53.1 °F 33% 29.90 in 10.0 mi Variable 3.5 mph - N/A   Clear
6:53 PM 84.0 °F 82.5 °F 53.1 °F 34% 29.90 in 10.0 mi Calm Calm - N/A   Clear
7:53 PM 79.0 °F - 53.1 °F 40% 29.91 in 10.0 mi Calm Calm - N/A   Clear
8:53 PM 66.9 °F - 55.9 °F 68% 29.91 in 10.0 mi Calm Calm - N/A   Clear
9:53 PM 66.0 °F - 55.0 °F 68% 29.92 in 10.0 mi Calm Calm - N/A   Clear
10:53 PM 64.9 °F - 55.0 °F 70% 29.93 in 10.0 mi Calm Calm - N/A   Clear
11:53 PM 64.0 °F - 55.0 °F 73% 29.92 in 10.0 mi Calm Calm - N/A   Clear